WB8ZTP Weather Reports


Display with metric or nautical units.
time (UTC)temp
F
wind
direction
speed
MPH
gust
MPH
rain 1hr
in
rain 24hr
in
rain mn
in
humidity
%
barometer
mb
20260901204526 87 197 3.0 7.0 0.00 0.00 0.00 76 1017.8
20260901203032 86 182 2.0 6.0 0.00 0.00 0.00 82 1017.8
20260901201518 84 163 0.0 5.0 0.00 0.00 0.00 86 1017.7
20260901200034 81 195 0.0 5.0 0.00 0.00 0.00 88 1017.7
20260901194512 78 167 1.0 4.0 0.00 0.00 0.00 91 1017.8
20260901193017 75 173 0.0 3.0 0.00 0.00 0.00 91 1017.6
20260901191513 75 173 0.0 2.0 0.00 0.00 0.00 90 1017.9
20260901190010 74 173 1.0 5.0 0.00 0.00 0.00 89 1018.6
20260901184509 75 202 2.0 5.0 0.00 0.00 0.00 90 1018.6
20260901183012 75 157 0.0 3.0 0.00 0.00 0.00 90 1018.8
20260901181512 76 153 0.0 4.0 0.00 0.00 0.00 91 1019.3
20260901180007 76 28 0.0 1.0 0.00 0.00 0.00 91 1019.4
20260901174508 75 157 0.0 1.0 0.00 0.00 0.00 91 1019.5
20260901173007 75 159 0.0 0.0 0.00 0.00 0.00 91 1019.9
20260901171506 75 159 0.0 2.0 0.00 0.00 0.00 91 1019.9
20260901170007 74 159 1.0 3.0 0.00 0.00 0.00 91 1019.8
20260901164510 73 159 0.0 2.0 0.00 0.00 0.00 91 1019.7
20260901163005 73 159 0.0 3.0 0.00 0.00 0.00 91 1019.7
20260901161505 73 155 2.0 4.0 0.00 0.00 0.00 91 1019.7
20260901160004 73 34 0.0 2.0 0.00 0.00 0.00 90 1019.9
20260901154512 75 34 2.0 11.0 0.00 0.00 0.00 88 1021.1
20260901153001 77 5 2.0 11.0 0.00 0.00 0.00 85 1020.9
20260901151558 80 17 2.0 6.0 0.00 0.00 0.00 82 1020.3
20260901150054 81 238 0.0 6.0 0.00 0.00 0.00 81 1019.5
20260901144554 81 224 2.0 9.0 0.00 0.00 0.00 80 1019.1
20260901143053 80 333 3.0 7.0 0.00 0.00 0.00 81 1019.1
20260901141555 79 234 1.0 7.0 0.00 0.00 0.00 84 1019.0
20260901140044 78 230 2.0 7.0 0.00 0.00 0.00 83 1018.9
20260901134542 78 239 4.0 9.0 0.00 0.00 0.00 84 1018.9
20260901133041 77 216 3.0 7.0 0.00 0.00 0.00 85 1018.8
20260901131537 76 213 2.0 7.0 0.00 0.00 0.00 87 1019.0
20260901130033 75 212 3.0 7.0 0.00 0.00 0.00 87 1019.1
20260901124531 74 229 4.0 7.0 0.00 0.00 0.00 88 1019.2
20260901123029 74 206 3.0 7.0 0.00 0.00 0.00 89 1019.4
20260901121534 74 176 3.0 7.0 0.00 0.00 0.00 89 1019.2
20260901120038 74 226 2.0 6.0 0.00 0.00 0.00 89 1019.1
20260901114524 74 209 2.0 5.0 0.00 0.00 0.00 89 1018.9
20260901113023 73 227 2.0 5.0 0.00 0.00 0.00 89 1018.8
20260901111522 73 184 2.0 5.0 0.00 0.00 0.00 90 1018.7
20260901110023 73 220 3.0 6.0 0.00 0.00 0.00 90 1018.5
20260901104523 73 190 3.0 6.0 0.00 0.00 0.00 90 1018.4
20260901103018 73 192 2.0 6.0 0.00 0.00 0.00 90 1018.4
20260901101519 73 210 3.0 7.0 0.00 0.00 0.00 91 1018.3
20260901100017 73 192 1.0 6.0 0.00 0.00 0.00 91 1018.1
20260901094520 73 202 2.0 5.0 0.00 0.00 0.00 91 1018.1
20260901093016 72 184 2.0 6.0 0.00 0.00 0.00 91 1018.0
20260901091516 72 172 1.0 4.0 0.00 0.00 0.00 90 1018.1
20260901090015 71 202 1.0 4.0 0.00 0.00 0.00 90 1018.0
20260901084514 71 202 0.0 2.0 0.00 0.00 0.00 90 1018.1
20260901083022 71 202 0.0 2.0 0.00 0.00 0.00 91 1018.0
20260901081516 70 202 0.0 1.0 0.00 0.00 0.00 91 1018.0
20260901080013 71 202 0.0 2.0 0.00 0.00 0.00 91 1017.9
20260901074514 71 202 0.0 1.0 0.00 0.00 0.00 91 1018.0
20260901073011 71 202 0.0 0.0 0.00 0.00 0.00 91 1017.9
20260901071510 70 202 0.0 0.0 0.00 0.00 0.00 91 1018.0
20260901070021 71 202 0.0 2.0 0.00 0.00 0.00 91 1017.9
20260901064508 71 202 0.0 2.0 0.00 0.00 0.00 91 1017.9
20260901063007 71 202 0.0 2.0 0.00 0.00 0.00 91 1017.9
20260901061508 71 202 1.0 2.0 0.00 0.00 0.00 91 1018.2
20260901060005 71 202 0.0 2.0 0.00 0.00 0.00 91 1018.3
20260901054505 71 202 0.0 0.0 0.00 0.00 0.00 91 1018.4
20260901053004 71 202 0.0 0.0 0.00 0.00 0.00 91 1018.3
20260901051502 72 202 0.0 0.0 0.00 0.00 0.00 91 1018.4
20260901050001 72 202 0.0 0.0 0.00 0.00 0.00 91 1018.3
20260901044559 72 202 0.0 0.0 0.00 0.00 0.00 90 1018.3
20260901043057 72 202 0.0 0.0 0.00 0.00 0.00 90 1018.2
20260901041614 73 202 0.0 0.0 0.00 0.00 0.00 90 1017.9
20260901040059 74 200 0.0 2.0 0.00 0.00 0.00 89 1017.7
20260901034550 75 206 0.0 0.0 0.00 0.00 0.00 88 1017.5
20260901033049 75 211 0.0 4.0 0.00 0.00 0.00 88 1017.3
20260901031552 74 166 2.0 9.0 0.00 0.00 0.00 90 1017.0
20260901030046 72 196 0.0 3.0 0.00 0.00 0.00 91 1017.6
20260901024544 72 196 1.0 4.0 0.00 0.00 0.00 91 1018.1
20260901023045 71 191 2.0 4.0 0.00 0.00 0.00 91 1018.3
20260901021549 71 205 0.0 2.0 0.00 0.00 0.00 91 1018.8
20260901020042 72 205 0.0 0.0 0.00 0.00 0.00 91 1019.2
20260901014542 72 205 0.0 0.0 0.00 0.00 0.00 90 1019.4
20260901013044 72 205 0.0 0.0 0.00 0.00 0.00 90 1019.3
20260901011540 72 205 0.0 0.0 0.00 0.00 0.00 90 1019.1
20260901010044 73 205 0.0 0.0 0.00 0.00 0.00 90 1018.9
20260901004549 74 205 0.0 0.0 0.00 0.00 0.00 89 1018.7
20260901003039 75 205 0.0 0.0 0.00 0.00 0.00 89 1018.9
20260901001541 76 205 0.0 0.0 0.00 0.00 0.00 88 1018.9
20260901000041 77 205 0.0 1.0 0.00 0.00 0.00 87 1018.7
20260831234538 78 202 0.0 1.0 0.00 0.00 0.00 86 1018.7
20260831233037 79 202 0.0 0.0 0.00 0.00 0.00 86 1018.7
20260831231545 80 202 0.0 0.0 0.00 0.00 0.00 85 1018.6
20260831230040 82 202 0.0 2.0 0.00 0.00 0.00 82 1018.4
20260831224536 82 202 1.0 3.0 0.00 0.00 0.00 77 1018.2
20260831223038 83 202 1.0 5.0 0.00 0.00 0.00 76 1018.1
20260831221537 84 152 1.0 5.0 0.00 0.00 0.00 72 1017.9
20260831220034 85 186 0.0 2.0 0.00 0.00 0.00 75 1018.1
20260831214533 85 186 0.0 3.0 0.00 0.00 0.00 72 1018.2
20260831213034 85 194 0.0 4.0 0.00 0.00 0.00 73 1018.1
20260831211534 85 229 0.0 5.0 0.00 0.00 0.00 71 1018.3
20260831210030 85 188 5.0 7.0 0.00 0.00 0.00 63 1018.5